Temperature
17 17 17 17 17 17 17 17 17 16 17 17 17 17 17 17 17 17 17 17 17 17 17 17 16 16 16 16 16 16 16 16 16 16 16 16 16 16 16 16 16 15 15
17 17 17 17 17 17 17 17 17 17 17 17 17 17 17 17 16 16 17 17 17 17 16 16 16 16 16 16 16 16 16 16 16 16 16 16 16 16 16 16 15 15 15
17 17 17 17 17 17 17 17 16 17 17 17 17 17 17 17 16 16 16 16 16 17 16 16 16 16 16 16 16 16 16 16 16 16 16 16 16 16 16 16 16 15 15
17 17 17 17 17 17 17 17 17 17 17 17 17 17 17 17 16 16 16 16 16 16 16 16 16 16 16 16 16 16 16 16 16 16 16 16 16 16 16 16 16 16 15
18 17 17 17 17 17 17 17 17 17 17 17 17 17 17 17 17 17 16 16 16 16 16 16 16 16 16 16 16 16 16 16 16 16 16 16 16 16 16 16 15 15 15
17 17 17 17 17 17 17 17 16 16 17 17 17 17 17 17 17 17 17 17 16 16 16 16 16 16 16 16 16 16 16 16 16 16 16 16 16 16 15 15 15 15 15
17 17 17 17 17 17 16 16 16 16 16 16 17 17 17 17 17 17 17 17 17 16 16 16 16 16 16 16 16 16 16 16 16 16 15 15 15 15 15 15 15 15 15
17 17 17 17 17 17 16 16 16 17 17 16 17 18 18 18 16 17 17 16 17 17 16 16 16 16 16 16 16 16 15 15 15 15 15 15 15 15 15 15 15 15 15
17 17 17 17 17 17 17 16 16 16 16 16 17 18 18 19 18 17 17 17 16 17 17 16 16 16 16 16 15 15 15 15 15 15 15 15 15 15 15 15 15 15 15
17 17 17 17 17 17 17 16 16 16 16 17 16 16 17 18 18 18 17 17 16 16 17 17 16 16 16 16 15 15 15 15 15 15 15 15 15 15 15 15 15 15 15
17 17 17 17 17 16 16 16 16 16 16 17 17 17 16 16 17 18 18 18 17 17 16 16 16 16 16 15 15 15 15 15 15 15 15 15 15 15 15 15 15 15 15
17 17 17 17 16 16 16 16 16 16 16 16 16 17 17 17 17 18 18 18 18 17 16 16 16 16 16 16 15 15 15 15 15 15 15 15 15 15 15 15 15 15 15
17 17 17 17 16 16 16 16 16 16 16 16 16 16 16 17 17 17 18 18 18 17 16 16 16 16 16 16 15 15 15 15 15 15 15 15 15 14 14 14 14 14 15
17 17 17 17 16 16 16 16 16 16 15 15 15 15 16 16 16 16 17 17 18 18 17 17 16 16 16 15 15 15 15 15 15 15 15 15 15 15 14 14 14 14 14
17 17 17 16 16 16 16 16 16 15 15 15 15 15 15 16 16 16 16 16 17 18 18 17 16 16 15 15 15 15 15 15 15 15 15 15 14 14 14 14 14 14 14
16 16 16 16 16 16 16 16 15 15 15 15 15 15 15 15 15 15 16 16 16 17 17 17 16 16 15 15 15 15 14 15 15 15 15 14 14 14 14 14 14 14 14
17 17 16 16 16 16 16 16 15 15 15 15 15 15 15 15 15 15 15 15 15 16 16 16 16 15 15 15 15 14 14 14 15 15 15 15 14 14 14 14 14 14 14
17 17 16 16 16 16 16 16 16 15 15 15 15 15 15 15 15 15 15 15 15 15 15 15 16 15 14 14 14 14 14 15 15 15 15 15 14 14 14 14 14 14 14
16 16 16 16 16 16 16 16 16 15 15 15 15 15 15 15 15 15 15 15 15 15 15 15 15 15 15 14 14 14 14 14 14 15 14 14 14 14 14 14 14 14 14
16 16 16 16 16 16 16 15 15 15 15 15 15 15 15 14 14 14 14 14 14 14 14 14 15 15 15 14 14 14 14 14 14 14 14 14 14 14 14 14 14 14 14
16 16 16 16 16 16 15 15 15 15 15 15 15 15 15 15 15 14 14 14 14 14 15 15 15 15 15 14 14 14 14 14 14 14 14 14 14 14 14 14 14 14 14
16 16 16 16 16 16 16 16 15 15 15 15 15 15 15 15 15 15 15 14 14 14 14 14 15 15 14 14 14 14 14 14 14 14 14 14 14 14 14 13 13 13 13
16 16 16 16 16 16 16 16 15 15 15 15 15 14 14 15 14 14 14 14 14 14 14 14 14 14 14 13 13 13 13 13 13 13 13 13 13 13 13 14 13 13 13
16 16 16 16 16 16 16 16 15 15 15 14 14 14 14 14 14 14 14 13 13 13 14 13 13 13 13 13 13 12 12 12 12 12 12 12 13 13 13 13 13 12 13
15 15 15 15 15 15 15 15 15 14 14 14 14 14 13 14 14 13 13 13 13 13 13 13 13 13 13 13 12 12 12 12 12 12 12 12 12 12 12 13 13 12 12
15 15 15 15 15 15 15 15 14 14 13 14 13 13 13 13 13 13 13 12 12 12 12 12 12 12 12 12 12 12 11 11 11 12 12 12 12 12 12 12 12 12 12
Wind_Speed
6 6 5 4 4 4 6 4 3 3 3 4 3 3 2 3 3 3 7 8 7 6 6 7 7 7 8 8 7 7 7 8 8 7 7 7 7 7 6 7 6 6 6
6 6 6 5 4 4 3 3 4 4 3 2 2 2 2 3 4 2 4 8 8 8 7 7 7 7 8 8 8 8 8 8 9 9 8 8 8 8 7 7 7 7 7
7 6 5 5 5 5 5 4 4 3 4 3 3 3 3 2 3 3 3 4 7 9 8 6 6 7 7 8 9 9 9 9 10 10 10 10 10 10 9 9 8 9 8
8 6 5 5 5 5 4 4 4 3 3 2 2 2 2 3 4 4 4 4 4 6 9 8 6 6 7 8 9 9 10 11 11 11 11 11 12 12 11 11 11 11 11
9 7 5 5 6 5 4 4 4 3 3 2 3 3 3 3 4 5 3 4 5 4 5 10 9 7 7 7 8 8 9 10 11 11 11 12 12 13 13 13 13 13 13
9 7 6 6 6 4 4 3 3 2 2 3 2 2 2 3 4 4 5 5 5 5 5 4 7 9 8 7 6 6 7 8 9 10 11 11 12 13 14 14 15 15 15
10 8 6 6 6 5 5 5 4 5 4 3 3 3 4 5 4 4 4 4 5 5 4 4 4 4 7 10 8 7 7 8 8 9 10 11 12 13 14 14 15 15 16
10 9 7 7 7 5 6 5 5 4 3 4 4 3 3 5 5 5 5 5 4 5 5 5 5 4 5 6 8 9 7 7 8 8 9 10 11 13 14 14 14 15 16
10 9 9 8 7 7 7 7 6 7 5 5 4 4 3 2 4 5 4 4 4 4 4 4 6 6 5 5 5 9 8 6 6 7 7 8 9 10 11 12 13 13 14
10 10 9 8 8 7 6 7 7 6 6 5 5 4 4 3 3 3 5 5 5 5 4 4 5 6 5 5 4 4 7 6 6 6 6 6 7 8 9 10 11 12 13
9 10 9 8 8 7 7 6 5 7 6 6 5 5 4 4 6 5 3 4 5 5 5 5 4 4 4 5 5 5 7 6 6 6 5 6 6 6 7 8 8 9 11
8 10 10 8 8 7 7 7 6 8 6 5 5 5 5 5 5 5 5 5 5 4 4 4 5 5 5 6 5 6 6 6 7 6 6 6 6 6 7 8 8 9 10
8 10 9 8 8 7 7 7 7 6 6 6 6 6 6 6 5 5 5 5 4 4 4 6 5 5 6 6 5 6 7 8 8 8 7 7 7 7 7 7 8 9 10
9 10 10 10 9 9 8 7 7 7 6 6 7 6 6 6 5 5 6 5 6 5 6 5 4 5 5 5 3 6 8 10 10 10 9 9 9 9 10 10 10 11 11
8 10 11 11 10 9 8 8 7 7 6 7 7 7 7 5 5 5 6 6 6 6 5 5 5 4 6 5 3 7 8 9 11 11 11 11 11 12 12 12 13 13 13
9 10 11 11 10 10 10 9 8 7 7 7 6 5 6 6 5 6 6 6 6 7 6 3 4 4 4 6 6 7 8 8 13 14 14 14 14 14 14 14 15 15 15
10 11 11 11 11 11 10 9 9 9 9 8 8 8 8 7 6 6 6 6 6 6 7 6 5 4 5 7 6 7 10 10 12 17 16 15 15 16 16 16 16 17 17
10 11 11 11 11 11 11 11 11 10 10 10 9 9 9 8 8 8 7 7 6 6 7 8 6 6 7 8 8 8 10 11 11 11 16 16 17 17 18 18 18 18 19
10 10 10 11 11 11 11 12 11 11 11 10 10 10 10 9 10 9 8 8 7 8 8 8 8 6 7 7 8 9 10 9 12 11 15 18 19 19 19 20 20 21 21
10 10 11 11 11 11 12 11 11 11 11 10 10 10 10 11 11 10 9 9 9 9 8 9 9 8 8 8 7 9 9 8 9 11 11 12 15 20 22 23 23 23 23
10 10 10 10 10 10 10 11 11 11 10 10 10 10 11 10 8 8 9 9 9 9 9 9 9 9 9 7 8 8 9 9 9 9 10 11 11 12 15 21 25 25 24
10 10 10 10 10 9 7 8 9 9 10 10 10 10 10 10 10 10 10 9 9 10 11 10 10 10 9 9 8 9 9 10 11 8 9 11 11 12 12 15 14 17 21
10 10 9 9 9 7 8 9 10 9 9 9 9 9 9 9 11 11 11 12 12 12 12 12 12 12 10 8 8 11 10 12 12 11 9 13 12 13 13 15 13 14 18
7 7 7 8 7 6 8 8 9 10 9 9 9 8 8 8 7 8 9 10 11 11 12 12 12 13 11 9 9 10 12 13 14 12 12 14 13 13 13 14 14 17 20
6 6 6 6 6 5 7 8 8 8 8 8 8 7 7 7 5 5 8 10 11 10 10 11 12 12 12 11 10 10 11 12 13 12 11 12 13 13 13 13 14 17 21
6 5 5 5 5 5 6 8 9 7 7 6 6 6 5 6 4 5 8 9 11 10 8 8 9 12 14 14 14 13 13 13 13 13 11 10 12 12 13 13 12 12 13
Wind_Direction
172 160 153 159 166 156 167 182 165 148 167 161 162 144 141 132 123 138 129 151 171 177 182 185 184 184 186 189 192 194 192 189 188 187 186 187 186 186 183 181 182 181 180
169 167 167 168 169 176 164 174 156 167 177 148 146 133 150 139 127 152 142 155 169 176 185 190 193 193 194 197 203 205 205 203 200 198 199 200 200 200 199 198 197 197 196
174 182 174 181 173 164 164 180 168 178 180 173 160 164 166 164 148 165 174 170 169 175 182 191 200 203 206 209 211 211 213 214 210 208 208 209 209 211 211 209 207 207 208
183 190 185 178 165 174 176 170 193 192 182 189 176 190 173 171 177 182 186 187 189 174 171 179 194 206 213 221 222 219 217 216 216 216 215 216 218 219 220 219 217 216 216
187 193 189 165 179 179 183 194 167 202 187 203 194 185 201 197 191 193 190 193 184 196 177 165 187 200 209 219 227 226 222 219 220 220 221 225 227 228 228 227 225 224 223
191 194 188 175 191 184 187 189 161 195 207 216 230 174 208 197 207 190 200 189 190 200 205 184 190 189 193 203 214 218 216 218 222 225 227 230 233 234 236 235 233 231 230
190 195 193 175 199 192 194 190 193 188 208 197 211 201 195 198 192 195 205 199 187 192 190 194 217 196 185 189 199 207 212 215 220 225 232 237 237 236 237 238 238 237 236
192 195 198 194 194 191 196 197 207 223 209 203 229 224 206 186 196 194 191 202 204 194 194 197 190 202 228 200 179 194 206 214 217 223 231 238 240 239 238 237 240 242 241
195 203 196 204 196 206 198 201 202 218 220 208 225 248 252 232 171 179 198 205 207 215 218 199 200 194 209 215 191 182 195 208 215 223 228 235 241 240 240 241 241 242 242
196 198 200 202 205 212 198 208 204 214 225 218 202 237 278 331 263 194 194 191 201 217 231 233 213 199 208 217 183 167 186 206 217 228 232 233 235 235 238 241 243 243 243
196 197 200 202 206 215 209 216 196 222 222 236 225 214 220 225 248 264 228 202 202 205 208 226 236 227 210 223 212 172 176 205 219 226 232 233 231 232 237 242 247 251 250
194 197 200 200 206 211 204 208 209 212 232 242 250 236 229 230 232 240 243 230 224 205 203 226 233 223 223 224 209 139 182 209 219 222 228 233 237 241 244 246 251 255 256
196 196 199 198 203 204 205 206 206 220 215 221 235 243 246 250 255 251 257 249 243 222 209 223 220 224 228 228 204 169 206 215 223 228 232 236 242 247 250 254 257 259 261
201 193 197 199 201 201 202 201 210 210 210 218 231 242 249 244 245 247 255 255 245 233 216 221 216 218 231 236 185 207 224 205 220 229 234 238 243 247 252 257 259 261 261
198 193 197 200 200 201 203 202 213 211 207 218 221 217 234 233 238 242 246 254 262 259 239 202 222 210 227 237 200 244 246 204 216 230 237 242 247 251 255 258 260 261 261
201 197 201 200 200 200 202 208 210 210 212 218 229 232 235 234 229 233 236 241 252 265 270 250 223 226 235 258 207 240 254 214 225 231 237 243 249 253 256 257 258 259 259
198 198 200 200 202 203 204 209 219 208 215 218 218 218 223 238 232 228 228 232 236 244 255 257 244 230 230 257 250 250 254 250 243 219 226 238 247 253 255 256 258 258 258
199 199 200 203 204 205 206 211 219 216 218 220 219 218 219 216 222 238 234 233 235 241 251 259 257 243 228 239 248 256 261 255 261 219 214 231 242 248 252 254 255 256 257
199 199 200 205 209 211 212 214 218 219 220 222 220 219 220 220 223 226 231 235 234 233 240 253 254 252 247 242 247 251 256 259 264 248 218 226 235 242 248 250 251 252 254
196 199 203 208 211 215 215 215 216 219 222 224 224 224 225 226 227 229 228 233 240 244 241 248 254 251 246 241 244 256 258 247 255 266 259 250 240 236 242 245 247 249 250
199 201 206 211 213 214 215 214 216 217 220 223 224 227 229 228 234 236 241 235 235 241 246 248 252 255 252 249 252 260 267 272 262 261 266 263 255 250 245 240 240 244 246
203 202 206 210 211 215 189 197 219 222 222 226 227 228 229 221 225 229 248 261 262 250 252 258 259 260 263 264 268 270 271 270 272 263 263 268 269 269 265 263 247 230 235
201 203 205 209 213 207 172 190 212 227 228 229 230 231 235 227 216 228 225 229 244 251 254 259 265 268 271 268 272 268 266 272 275 279 274 271 269 268 268 267 250 234 236
199 204 207 209 212 201 171 188 203 221 232 233 233 232 236 242 233 236 240 237 238 236 234 239 252 262 269 277 273 270 276 273 268 264 261 268 272 273 272 272 258 238 239
194 200 204 207 211 204 177 191 203 218 226 230 233 231 233 235 228 233 247 252 255 252 239 232 241 254 267 272 269 271 270 270 272 272 263 265 273 276 275 273 269 246 238
190 196 198 205 210 214 179 190 209 225 227 227 225 226 222 237 227 213 240 253 259 264 268 257 243 248 254 251 237 243 259 267 273 277 275 270 274 279 279 274 272 270 257
Height
1566 1567 1568 1570 1572 1573 1574 1575 1577 1578 1579 1580 1581 1582 1583 1583 1584 1585 1585 1584 1585 1586 1587 1588 1588 1589 1590 1591 1592 1592 1593 1594 1595 1595 1596 1596 1597 1598 1598 1599 1599 1600 1600
1565 1566 1568 1569 1571 1573 1574 1575 1577 1577 1579 1580 1581 1581 1582 1583 1583 1584 1585 1584 1585 1586 1586 1587 1588 1589 1590 1590 1591 1592 1593 1593 1594 1595 1595 1596 1597 1597 1598 1599 1599 1600 1600
1564 1566 1568 1569 1571 1572 1572 1574 1575 1577 1578 1579 1580 1581 1582 1582 1583 1583 1584 1585 1585 1585 1586 1587 1587 1588 1589 1590 1591 1591 1592 1592 1593 1594 1594 1595 1596 1596 1597 1598 1598 1599 1599
1562 1564 1567 1569 1569 1571 1573 1574 1575 1577 1578 1579 1579 1580 1581 1581 1582 1583 1584 1584 1585 1586 1586 1586 1587 1587 1588 1589 1589 1590 1590 1591 1592 1592 1593 1594 1595 1595 1596 1596 1597 1598 1598
1561 1564 1566 1568 1569 1571 1572 1573 1575 1576 1577 1578 1579 1579 1580 1580 1581 1582 1583 1583 1584 1585 1586 1585 1586 1586 1587 1587 1588 1588 1589 1589 1590 1591 1591 1592 1593 1593 1594 1595 1595 1596 1596
1560 1563 1565 1566 1568 1570 1571 1572 1573 1574 1576 1577 1578 1578 1579 1579 1580 1581 1582 1582 1583 1584 1585 1585 1585 1585 1585 1586 1586 1586 1587 1587 1588 1588 1589 1589 1590 1591 1591 1592 1593 1593 1594
1559 1561 1564 1565 1566 1569 1570 1571 1572 1573 1575 1576 1577 1577 1578 1578 1579 1580 1581 1582 1582 1583 1583 1583 1584 1585 1584 1584 1584 1585 1585 1585 1586 1586 1586 1587 1587 1588 1588 1589 1590 1590 1591
1557 1560 1561 1563 1565 1567 1568 1569 1570 1573 1574 1574 1576 1576 1577 1578 1577 1578 1579 1580 1581 1581 1582 1582 1582 1583 1584 1584 1583 1583 1583 1584 1584 1584 1584 1584 1584 1585 1585 1586 1586 1587 1588
1555 1557 1559 1562 1563 1565 1566 1567 1568 1570 1572 1573 1574 1576 1575 1574 1576 1577 1577 1578 1579 1580 1581 1581 1581 1581 1582 1582 1582 1581 1581 1582 1582 1582 1581 1581 1582 1582 1582 1582 1583 1583 1584
1552 1555 1557 1559 1561 1563 1564 1565 1567 1568 1570 1572 1572 1573 1574 1574 1575 1575 1576 1577 1577 1578 1579 1580 1580 1580 1580 1580 1580 1579 1579 1579 1579 1579 1579 1579 1579 1579 1579 1579 1579 1580 1580
1550 1552 1554 1557 1558 1561 1562 1563 1564 1566 1568 1570 1571 1571 1572 1573 1574 1574 1574 1575 1576 1576 1577 1577 1578 1578 1578 1578 1578 1578 1577 1577 1577 1577 1577 1577 1576 1576 1576 1576 1576 1576 1576
1546 1549 1552 1554 1556 1558 1559 1561 1562 1564 1565 1567 1568 1570 1571 1571 1572 1572 1573 1573 1574 1574 1574 1575 1576 1576 1576 1576 1576 1575 1575 1575 1575 1575 1574 1574 1574 1574 1573 1573 1573 1573 1572
1543 1546 1549 1551 1553 1555 1557 1558 1559 1561 1563 1564 1565 1567 1568 1569 1570 1571 1571 1571 1572 1572 1572 1573 1573 1573 1574 1574 1573 1572 1572 1572 1572 1572 1572 1571 1571 1571 1570 1570 1569 1569 1568
1540 1543 1545 1548 1550 1552 1554 1555 1558 1559 1560 1561 1563 1564 1565 1567 1568 1568 1569 1570 1570 1570 1570 1571 1571 1571 1571 1571 1570 1569 1570 1569 1569 1569 1569 1568 1568 1567 1567 1566 1565 1565 1564
1537 1540 1542 1545 1548 1550 1551 1553 1555 1556 1557 1558 1560 1561 1562 1564 1564 1566 1566 1567 1568 1567 1567 1568 1568 1568 1568 1568 1567 1567 1567 1566 1565 1565 1565 1565 1564 1564 1563 1562 1561 1561 1560
1534 1536 1539 1542 1545 1547 1548 1550 1552 1553 1554 1555 1556 1558 1559 1561 1562 1562 1563 1564 1565 1566 1565 1566 1566 1566 1565 1565 1564 1563 1563 1562 1561 1561 1561 1561 1560 1559 1559 1558 1557 1556 1556
1530 1533 1536 1539 1541 1543 1545 1547 1549 1550 1551 1552 1553 1554 1555 1557 1558 1559 1560 1561 1561 1562 1562 1563 1563 1562 1560 1560 1561 1560 1559 1558 1558 1557 1556 1556 1555 1555 1554 1553 1552 1551 1551
1528 1531 1533 1536 1538 1540 1542 1543 1545 1547 1547 1549 1550 1551 1552 1553 1554 1555 1556 1557 1558 1558 1559 1559 1559 1558 1557 1556 1555 1555 1556 1556 1555 1553 1551 1550 1550 1549 1548 1547 1547 1546 1545
1526 1528 1531 1533 1535 1537 1538 1540 1542 1543 1544 1545 1546 1547 1548 1549 1550 1552 1552 1553 1554 1555 1554 1555 1554 1554 1554 1553 1552 1551 1551 1549 1549 1549 1546 1545 1544 1543 1542 1541 1540 1540 1539
1523 1525 1527 1529 1531 1533 1534 1536 1538 1539 1540 1541 1543 1543 1544 1546 1547 1548 1548 1548 1550 1550 1550 1550 1550 1550 1549 1548 1547 1547 1546 1545 1544 1544 1542 1540 1538 1536 1535 1534 1533 1533 1532
1520 1522 1524 1526 1527 1529 1531 1532 1534 1535 1536 1537 1538 1539 1540 1541 1542 1543 1544 1545 1545 1545 1546 1546 1545 1545 1544 1544 1543 1542 1541 1540 1539 1538 1536 1535 1534 1531 1530 1527 1526 1525 1525
1516 1518 1520 1522 1524 1525 1526 1528 1529 1531 1531 1532 1533 1534 1535 1536 1536 1537 1538 1539 1540 1540 1541 1541 1540 1540 1539 1539 1538 1537 1536 1535 1533 1533 1530 1528 1528 1525 1524 1523 1521 1518 1517
1512 1514 1516 1518 1519 1520 1522 1524 1525 1527 1528 1528 1529 1530 1531 1531 1531 1532 1532 1533 1533 1533 1534 1534 1534 1533 1533 1532 1531 1530 1529 1527 1525 1525 1523 1520 1520 1518 1517 1516 1513 1511 1510
1509 1511 1512 1514 1515 1516 1518 1519 1521 1522 1523 1523 1524 1524 1525 1526 1526 1526 1526 1527 1527 1526 1527 1526 1526 1526 1526 1525 1524 1523 1522 1520 1518 1517 1516 1514 1512 1511 1509 1508 1506 1503 1502
1506 1508 1509 1510 1511 1512 1514 1515 1517 1517 1518 1518 1519 1519 1520 1520 1520 1521 1521 1521 1521 1521 1521 1520 1519 1519 1519 1518 1517 1516 1515 1514 1511 1510 1510 1507 1505 1503 1501 1499 1498 1495 1493
1503 1504 1505 1507 1508 1509 1510 1511 1512 1513 1513 1513 1514 1514 1514 1515 1515 1515 1515 1515 1515 1515 1515 1514 1513 1511 1511 1510 1509 1508 1507 1507 1504 1503 1502 1501 1498 1496 1493 1491 1490 1488 1485